Regional Weather Roundup
Issued by NWS

Home | Current Version | Previous Version | Text Only | Print | Product List | Glossary Off
Versions: 1 2 3 4 5 6 7 8 9 10 11 12 13 14 15 16 17 18 19 20 21 22 23 24 25 26 27 28 29 30 31 32 33 34 35 36 37 38 39 40 41 42 43 44 45 46 47 48 49 50

000
ASUS44 KMEG 300110
RWRTN
TENNESSEE HOURLY STATE WEATHER ROUNDUP
NATIONAL WEATHER SERVICE MEMPHIS TN
800 PM CDT MON MAY 29 2017

TNZ002-004-019-021-049-052-054-088>092-300200-
WEST TENNESSEE

CITY           SKY/WX    TMP DP  RH WIND       PRES   REMARKS
MEMPHIS INTL   CLOUDY    77  61  57 SW5       30.00R
NWS MEMPHIS      N/A     74 N/A N/A MISG        N/A
JACKSON        CLOUDY    74  66  76 CALM      29.99R
DYERSBURG        N/A    N/A N/A N/A MISG        N/A
SOMERVILLE     CLEAR     77  68  73 CALM      29.99S
COVINGTON      CLEAR     77  64  65 SW3       29.99R
UNION CITY     CLEAR     77  59  53 SW3       29.96R
BOLIVAR        CLEAR     75  68  78 CALM      29.99S
PARIS          CLEAR     73  64  73 CALM      29.97R
HUNTINGDON     CLEAR     77  64  65 CALM      29.98R
LEXINGTON      CLEAR     73  68  83 CALM      29.99S
SELMER         CLEAR     73  70  88 CALM      30.00S
SAVANNAH       CLEAR     72  68  88 S3        30.00R
$$

TNZ008-025-027-028-033-062-065-066-300200-
NORTH MIDDLE TENNESSEE

CITY           SKY/WX    TMP DP  RH WIND       PRES   REMARKS
NASHVILLE      CLOUDY    74  62  66 S7        30.00R
PORTLAND       CLEAR     72  64  78 S6        29.98R
CLARKSVILLE    CLOUDY    76  60  57 SW6       29.97R
SMYRNA         PTCLDY    72  67  84 S5        30.01R
COOKEVILLE     CLEAR     68  64  88 CALM      30.00S
GALLATIN       CLEAR     73  66  78 CALM      30.01R
CROSSVILLE     CLOUDY    66  63  90 CALM      30.05S
$$

TNZ061-075-076-078-094-096-097-300200-
SOUTH MIDDLE TENNESSEE

CITY           SKY/WX    TMP DP  RH WIND       PRES   REMARKS
FAYETTEVILLE   CLEAR     68  64  88 CALM      30.01S
TULLAHOMA      CLEAR     66  66 100 CALM      30.03S
WINCHESTER     PTCLDY    68  66  94 CALM        N/A
MCMINNVILLE    CLEAR     70  70 100 CALM      30.02R
COLUMBIA       PTCLDY    70  68  94 S3        29.99R
SHELBYVILLE    CLEAR     68  68 100 CALM      30.01R
$$

TNZ017-018-042-046-047-300200-
NORTHEAST TENNESSEE

CITY           SKY/WX    TMP DP  RH WIND       PRES   REMARKS
TRI CITIES     LGT RAIN  66  65  96 CALM      30.04S
ELIZABETHTON   CLOUDY    68  64  88 CALM      30.04S
$$

TNZ012-013-036-069-073-074-300200-
CENTRAL EAST TENNESSEE

CITY           SKY/WX    TMP DP  RH WIND       PRES   REMARKS
KNOXVILLE      NOT AVBL
OAK RIDGE      CLOUDY    72  65  78 CALM      30.02S
DOWNTOWN KNOXV MOCLDY    70  68  94 CALM      30.01S
GATLINBURG     CLEAR     68  63  83 S3        30.01F
MORRISTOWN     PTCLDY    70  64  83 S3        30.01S
JACKSBORO      CLEAR     68  64  88 CALM      30.04S
$$

TNZ083-085-099-300200-
SOUTHEAST TENNESSEE

CITY           SKY/WX    TMP DP  RH WIND       PRES   REMARKS
CHATTANOOGA    MOCLDY    68  66  93 SE3       30.03R
$$

SKY/WX REPORTED AS FAIR MEANS FEW OR NO CLOUDS BELOW
12 THOUSAND FEET.





USA.gov is the U.S. government's official web portal to all federal, state and local government web resources and services.